This is the latest recevied weather packets stored in our database for station/object WS4FSC-7. If no packets are shown the sender has not sent any weather packets the latest 10 day(s).
| Time | Temp. | Humidity | Pressure | Rain* | Wind** | Luminosity | Snow |
|---|---|---|---|---|---|---|---|
| 1788283071 | 30° C | 79% | 1015 hPa | - | - | 87 W/m² | - |
| 1788282531 | 30° C | 80% | 1015 hPa | - | - | 212 W/m² | - |
| 1788282350 | 30° C | 79% | 1015 hPa | - | - | 239 W/m² | - |
| 1788281991 | 30.56° C | 78% | 1015 hPa | - | - | 281 W/m² | - |
| 1788281450 | 30.56° C | 75% | 1015 hPa | - | - | 279 W/m² | - |
| 1788281271 | 30.56° C | 75% | 1015 hPa | - | - | 273 W/m² | - |
| 1788280372 | 30.56° C | 74% | 1015 hPa | - | - | 225 W/m² | - |
| 1788280191 | 30.56° C | 74% | 1015 hPa | - | - | 292 W/m² | - |
| 1788279831 | 30.56° C | 74% | 1015 hPa | - | - | 266 W/m² | - |
| 1788279471 | 30.56° C | 73% | 1015 hPa | - | - | 205 W/m² | - |
| 1788279112 | 30.56° C | 72% | 1015 hPa | - | - | 145 W/m² | - |
| 1788278750 | 30.56° C | 75% | 1015 hPa | - | - | 149 W/m² | - |
| 1788278210 | 31.11° C | 72% | 1015 hPa | - | - | 124 W/m² | - |
| 1788278030 | 31.11° C | 72% | 1015 hPa | - | - | 142 W/m² | - |
| 1788277850 | 31.67° C | 71% | 1015 hPa | - | - | 147 W/m² | - |
| 1788277671 | 32.22° C | 70% | 1015 hPa | - | - | 204 W/m² | - |
| 1788277311 | 31.67° C | 71% | 1015 hPa | - | - | 532 W/m² | - |
| 1788277131 | 31.67° C | - | - | - | - | - | - |
| 1788276411 | 32.22° C | 70% | 1015 hPa | - | - | 925 W/m² | - |
| 1788276231 | 32.22° C | 68% | 1015 hPa | - | - | 372 W/m² | - |
| 1788276051 | 32.22° C | 68% | 1015 hPa | - | - | 918 W/m² | - |
| 1788275871 | 31.67° C | 67% | 1015 hPa | - | - | 888 W/m² | - |
| 1788275511 | 32.22° C | 70% | 1015 hPa | - | - | 215 W/m² | - |
| 1788274791 | 32.22° C | 67% | 1015 hPa | - | - | 767 W/m² | - |
| 1788274432 | 32.78° C | 68% | 1015 hPa | - | - | 732 W/m² | - |
* Rain since midnight (hover to see other rain measurements)
** Current wind speed in m/s (hover to see current wind gust speed)